Location: Barcelona
(41.3829°N, 2.1774°E)
Time: 19:33:15
(UTC+00:00)

ISS - Pass Details

Date: 09 July 2025
Orbit: 413 x 417 km, 51.6° (Epoch: 13 July)

Event Time Altitude Azimuth Distance (km) Brightness Sun altitude
Rises 03:13:34 0° 303° (WNW) 2,359 -0.1 -11.6°
Reaches altitude 10° 03:15:41 10° 299° (WNW) 1,493 -1.1 -11.4°
Maximum altitude 03:18:59 58° 219° (SW) 488 -3.8 -10.9°
Drops below altitude 10° 03:22:16 10° 140° (SE) 1,486 -1.0 -10.5°
Sets 03:24:23 0° 136° (SE) 2,346 0.1 -10.2°
